Flag for Germany Weather past 2 weeks in Gütersloh, North Rhine-Westphalia, Germany

Now
50 °F

Passing clouds.


Feels Like: 50 °F
Forecast: 47 / 61 °F
Wind: 1 mph from Southeast

Location: Bad Lippspringe

Current Time: Sep 23, 2014 at 11:16:22 PM

Latest Report: Sep 23, 2014 at 10:00 PM


Visibility: 6 mi

Pressure: 30.09 "Hg

Humidity: 87%

Dew point: 46 °F

Location of GüterslohLocation

Historic Weather in Gütersloh — Graph

°F

Gütersloh temperature yesterday

Maximum temperature yesterday: 56 °F (at 6:00 PM)
Minimum temperature yesterday: 48 °F (at 1:00 PM)
Average temperature yesterday: 52 °F

Past Weeks' High & Low Weather Summary

 TemperatureHumidityPressure
High75 °F (Sep 17, 3:00 PM)99% (Sep 12, 6:00 AM)30.23 "Hg (Sep 12, 6:00 AM)
Low44 °F (Sep 12, 5:00 AM)54% (Sep 23, 4:00 PM)29.85 "Hg (Sep 19, 6:00 AM)
Average60 °F83%30.05 "Hg
* Reported Sep 8 10:00 PM — Sep 23 10:00 PM, Gütersloh, Weather by CustomWeather, © 2014

Note: Actual official high and low records may vary slightly from our data, if they occured in-between our weather recording intervals... More about our weather records

Advertising

Gütersloh weather history for previous 24 hours

 ConditionsComfort  
Time TempWeatherWind HumidityBarometerVisibility
10:00 PM
Sep 23
50 °FPassing clouds.1 mph87%30.09 "Hg6 mi
9:00 PM52 °FOvercast.1 mph84%30.10 "Hg7 mi
8:00 PM53 °FOvercast.2 mph83%30.10 "Hg7 mi
7:00 PM57 °FOvercast.2 mph65%30.09 "Hg10 mi
6:00 PM58 °FOvercast.2 mph61%30.10 "Hg11 mi
5:00 PM58 °FOvercast.2 mph56%30.11 "Hg11 mi
4:00 PM59 °FOvercast.3 mph54%30.12 "Hg12 mi
3:00 PM58 °FOvercast.2 mph55%30.14 "Hg12 mi
2:00 PM57 °FOvercast.3 mph64%30.15 "Hg10 mi
1:00 PM56 °FOvercast.2 mph68%30.17 "Hg8 mi
12:00 PM54 °FOvercast.2 mph75%30.18 "Hg7 mi
11:00 AM51 °FOvercast.2 mph79%30.19 "Hg6 mi
10:00 AM49 °FFog.3 mph86%30.19 "Hg4 mi
9:00 AM47 °FFog.2 mph90%30.18 "Hg3 mi
8:00 AM47 °FFog.3 mph94%30.17 "Hg3 mi
7:00 AM47 °FFog.2 mph90%30.16 "Hg4 mi
6:00 AM47 °FLow clouds.1 mph90%30.15 "Hg6 mi
5:00 AM48 °FOvercast.1 mph92%30.15 "Hg6 mi
4:00 AM48 °FOvercast.1 mph90%30.14 "Hg6 mi
3:00 AM49 °FOvercast.1 mph88%30.15 "Hg7 mi
2:00 AM50 °FOvercast.1 mph86%30.15 "Hg9 mi
1:00 AM50 °FOvercast.1 mph85%30.15 "Hg9 mi
12:00 AM49 °FOvercast.1 mph88%30.14 "Hg8 mi
11:00 PM
Sep 22
49 °FOvercast.2 mph87%30.14 "Hg9 mi
Weather by CustomWeather, © 2014

See weather overviewHow to use our weather pages